Regional Weather Roundup
Issued by NWS

Home | Current Version | Previous Version | Text Only | Print | Product List | Glossary Off
Versions: 1 2 3 4 5 6 7 8 9 10 11 12 13 14 15 16 17 18 19 20 21 22 23 24 25 26 27 28 29 30 31 32 33 34 35 36 37 38 39 40 41 42 43 44 45 46 47 48 49 50

436
ASUS44 KLIX 232310
RWRLA
LOUISIANA WEATHER ROUNDUP
NATIONAL WEATHER SERVICE NEW ORLEANS LA
600 PM CDT TUE SEP 23 2014

NOTE: "FAIR" INDICATES FEW OR NO CLOUDS BELOW 12,000 FEET WITH NO
      SIGNIFICANT WEATHER AND/OR OBSTRUCTIONS TO VISIBILITY.
      SKY/WX - SKY CONDITION AND SIGNIFICANT WEATHER.
      TMP - AIR TEMPERATURE.    DP   - DEWPOINT TEMPERATURE.
      RH  - RELATIVE HUMIDITY.  PRES - PRESSURE.
      HX  - HEAT INDEX.         WCI  - WIND CHILL INDEX.

*  THESE STATIONS ARE NOT NWS OR FAA STATIONS AND ARE NOT UNDER
   NWS QUALITY CONTROL.

LAZ040-048-061>063-065-066-069-240000-
SOUTHEAST LOUISIANA

CITY           SKY/WX    TMP DP  RH WIND       PRES   REMARKS
N.O. AUDUBON     N/A     81  56  41 MISG        N/A
N.O. INTL ARPT MOSUNNY   83  51  33 NE12      30.02F
N.O. LAKEFRONT SUNNY     82  59  45 E9        30.03F
N.O. DOWNTOWN* FAIR      82  54  36 E5        30.03S
SLIDELL        SUNNY     82  55  39 N5        30.03S
BATON ROUGE    SUNNY     82  55  39 N6        30.04F
BOOTHVILLE     MOSUNNY   80  66  62 NE13      30.02F
BELLE CHASSE   MOSUNNY   81  55  40 E8        30.02S
BOGALUSA*      FAIR      83  53  36 NE5       30.06S
GALLIANO*      NOT AVBL
NEW ROADS*     FAIR      81  57  44 N7        30.05S
GONZALES*      FAIR      81  54  39 NE5       30.03S
HAMMOND*       SUNNY     82  48  30 NE5       30.06S
HOUMA*         NOT AVBL
PORT FOURCHON* CLEAR     81  57  44 NE14G21   30.05S

$$

LAZ041-044-053-054-240000-
SOUTHWEST LOUISIANA

CITY           SKY/WX    TMP DP  RH WIND       PRES   REMARKS
LAKE CHARLES   SUNNY     81  57  43 NE9       30.04S
LAFAYETTE      SUNNY     81  56  42 NE7       30.04S
PATTERSON      SUNNY     82  57  42 N7        30.05F
SALT POINT       N/A     84  58  40 CALM      30.01F
NEW IBERIA     SUNNY     83  57  41 NE8       30.04S
CHENAULT AIRPK SUNNY     81  55  41 N6        30.05S

$$

LAZ027-028-240000-
CENTRAL LOUISIANA

CITY           SKY/WX    TMP DP  RH WIND       PRES   REMARKS
FORT POLK      MOSUNNY   77  55  45 NE6       30.06F
ALEXANDRIA INT MOSUNNY   79  53  40 NE7       30.05F
ALEXANDRIA     MOSUNNY   82  54  37 VRB3      30.07S

$$

LAZ001-002-240000-
NORTHWEST LOUISIANA

CITY           SKY/WX    TMP DP  RH WIND       PRES   REMARKS
SHREVEPORT     PTSUNNY   79  49  34 E12       30.08F
BARKSDALE AFB  PTSUNNY   82  48  31 E6        30.09F
DTN SHREVEPORT MOSUNNY   79  49  34 E5        30.09F

$$

LAZ014-016-240000-
NORTHEAST LOUISIANA

CITY           SKY/WX    TMP DP  RH WIND       PRES   REMARKS
MONROE         MOSUNNY   78  49  35 N7        30.10S
TALLULAH       SUNNY     81  51  35 N8        30.08F

$$




USA.gov is the U.S. government's official web portal to all federal, state and local government web resources and services.